Location: *
(45.9500°N, 9.0833°E)
Time: 06:34:39
(UTC+00:00)

SR - Pass Details

Date: 15 June 2021
Orbit: 577 x 878 km, 66.7° (Epoch: 24 July)

Event Time Altitude Azimuth Distance (km) Brightness Sun altitude
Rises 02:43:58 0° 319° (NW) 3,295 ? -7.3°
Reaches altitude 10° 02:46:44 10° 308° (NW) 2,310 ? -6.9°
Maximum altitude 02:51:12 29° 250° (WSW) 1,317 ? -6.4°
Drops below altitude 10° 02:55:21 10° 191° (SSW) 2,123 ? -5.8°
Sets 02:57:48 0° 180° (S) 2,982 ? -5.5°
